Regional Weather Roundup
Issued by NWS

Home | Current Version | Previous Version | Text Only | Print | Product List | Glossary On
Versions: 1 2 3 4 5 6 7 8 9 10 11 12 13 14 15 16 17 18 19 20 21 22 23 24 25 26 27 28 29 30 31 32 33 34 35 36 37 38 39 40 41 42 43 44 45 46 47 48 49 50
000
ASUS43 KBIS 221220
RWRND

NORTH DAKOTA REGIONAL WEATHER ROUNDUP
NATIONAL WEATHER SERVICE BISMARCK ND
700 AM CDT WED OCT 22 2014

NOTE: "FAIR" INDICATES FEW OR NO CLOUDS BELOW 12,000 FEET WITH NO
SIGNIFICANT WEATHER AND/OR OBSTRUCTIONS TO VISIBILITY.


NDZ001>003-009>011-017-221300-
NORTHWEST NORTH DAKOTA

CITY           SKY/WX    TMP DP  RH WIND       PRES   REMARKS
WILLISTON      MOCLDY    51  43  74 W12G22    29.79R
6HR MIN TEMP:  51; 6HR MAX TEMP:  60; 6HR PCP: TRACE;

MINOT          PTCLDY    53  44  71 SW12G17   29.69R
MINOT AFB      PTCLDY    52  47  84 W15       29.68R
$$

NDZ018>021-031>035-040>046-221300-
SOUTHWEST NORTH DAKOTA

CITY           SKY/WX    TMP DP  RH WIND       PRES   REMARKS
BISMARCK       MOCLDY    57  47  69 W10       29.77R
6HR MIN TEMP:  53; 6HR MAX TEMP:  66;

DICKINSON      CLOUDY    50  44  80 W17G29    29.82R
GARRISON         N/A     52  46  80 W14       29.74R
6HR MIN TEMP:  50; 6HR MAX TEMP:  62;

HETTINGER ARPT CLOUDY    50  44  80 W20       29.87R
$$

NDZ004>008-012>016-024-026-027-054-221300-
NORTHEAST NORTH DAKOTA

CITY           SKY/WX    TMP DP  RH WIND       PRES   REMARKS
GRAND FORKS    PTCLDY    54  42  64 S22G29    29.80F
GRND FRKS AFB  PTCLDY    55  43  63 S24G33    29.79S
DEVILS LAKE    MOCLDY    55  39  54 S17       29.71R
$$

NDZ022-023-025-028>030-036>039-047>053-221300-
SOUTHEAST NORTH DAKOTA

CITY           SKY/WX    TMP DP  RH WIND       PRES   REMARKS
FARGO          PTCLDY    55  41  59 S24G35    29.87R
6HR MIN TEMP:  55; 6HR MAX TEMP:  56;

JAMESTOWN      PTCLDY    57  40  52 S20       29.77R
$$




USA.gov is the U.S. government's official web portal to all federal, state and local government web resources and services.